Location: Roanoke
(37.2710°N, 79.9420°W)
Time: 05:10:59
(UTC-05:00)

Courier 1B Rocket - Pass Details

Date: 20 November 2019
Orbit: 920 x 1202 km, 28.2° (Epoch: 09 December)

Event Time Altitude Azimuth Distance (km) Brightness Sun altitude
Rises 13:44:29 0° 222° (SW) 3,687 9.2 28.4°
Reaches altitude 10° 13:47:38 10° 208° (SSW) 2,785 9.2 28.1°
Maximum altitude 13:52:50 23° 158° (SSE) 2,051 7.5 27.6°
Drops below altitude 10° 13:58:18 10° 108° (ESE) 2,953 7.5 27.1°
Sets 14:01:45 0° 95° (E) 3,962 7.9 26.7°
